Weather History for Sidney-Richland, MT

Change the Weather History Date:

Monday, January 21, 2013

  Actual Average Record
Temperature  
Mean Temperature 0 °F -  
Max Temperature 6 °F 30 °F 53 °F (1968)
Min Temperature -5 °F 8 °F -35 °F (1954)
Degree Days  
Heating Degree Days 64    
Moisture  
Dew Point -7 °F    
Average Humidity 68    
Maximum Humidity 79    
Minimum Humidity 52    
Precipitation  
Precipitation 0.00 in - - ()
Sea Level Pressure  
Sea Level Pressure 30.31 in    
Wind  
Wind Speed 6 mph (West)    
Max Wind Speed 15 mph    
Max Gust Speed 18 mph    
Visibility 9 miles    
Events      
Averages and records for this station are not official NWS values.
T = Trace of Precipitation, MM = Missing Value Source: NWS Daily Summary

Daily Weather History Graph

Daily Weather History Graph

Search for Another Location

Airport:

Trip Planner

Search our weather history database for the weather conditions in past years. The results will help you decide how hot, cold, wet, or windy it might be!

Date:

Astronomy

Jan. 21, 2013 Rise Set
Actual Time 7:35 AM MST 4:41 PM MST
Civil Twilight 7:01 AM MST 5:15 PM MST
Nautical Twilight 6:23 AM MST 5:53 PM MST
Astronomical Twilight 5:46 AM MST 6:30 PM MST
Moon 12:21 PM MST (1/21) 3:07 AM MST (1/21)
Length of Visible Light 10h 14m
Length of Day
9h 05m
Waxing Gibbous, 75% of the Moon is Illuminated
Jan 21
Waxing Gibbous
Jan 26
Full
Feb 3
Last Quarter
Feb 10
New
Feb 17
First Quarter

Hourly Weather History & Observations

Time (MST) Temp. Windchill Dew Point Humidity Pressure Visibility Wind Dir Wind Speed Gust Speed Precip Events Conditions
12:15 AM -5.8 °F -25.2 °F -14.8 °F 65% 30.45 in 10.0 mi WNW 12.7 mph 17.3 mph N/A   Clear
12:35 AM -5.8 °F -24.4 °F -14.8 °F 65% 30.44 in 10.0 mi NW 11.5 mph - N/A   Clear
12:55 AM -5.8 °F -25.2 °F -14.8 °F 65% 30.43 in 10.0 mi NW 12.7 mph - N/A   Scattered Clouds
1:15 AM -5.8 °F -26.0 °F -14.8 °F 65% 30.42 in 10.0 mi WNW 13.8 mph 18.4 mph N/A   Overcast
1:35 AM -5.8 °F -25.2 °F -14.8 °F 65% 30.41 in 10.0 mi WNW 12.7 mph - N/A   Overcast
1:55 AM -5.8 °F -26.8 °F -13.0 °F 71% 30.41 in 10.0 mi WNW 15.0 mph - N/A   Overcast
2:15 AM -5.8 °F -23.4 °F -13.0 °F 71% 30.42 in 10.0 mi NW 10.4 mph - N/A   Mostly Cloudy
2:35 AM -5.8 °F - -14.8 °F 65% 30.42 in 10.0 mi Calm Calm - N/A   Scattered Clouds
2:55 AM -5.8 °F -14.5 °F -11.2 °F 77% 30.42 in 10.0 mi WNW 3.5 mph - N/A   Mostly Cloudy
3:15 AM -5.8 °F -16.7 °F -14.8 °F 65% 30.41 in 10.0 mi WNW 4.6 mph - N/A   Overcast
3:55 AM -4.0 °F -17.8 °F -11.2 °F 71% 30.40 in 10.0 mi West 6.9 mph - N/A   Overcast
4:15 AM -4.0 °F -16.3 °F -11.2 °F 71% 30.40 in 10.0 mi WNW 5.8 mph - N/A   Overcast
4:36 AM -4.0 °F -12.4 °F -13.0 °F 65% 30.39 in 10.0 mi WNW 3.5 mph - N/A   Overcast
4:55 AM -4.0 °F - -11.2 °F 71% 30.39 in 10.0 mi Calm Calm - N/A   Overcast
5:15 AM -4.0 °F -16.3 °F -11.2 °F 71% 30.39 in 10.0 mi NW 5.8 mph - N/A   Overcast
5:35 AM -4.0 °F -12.4 °F -13.0 °F 65% 30.40 in 10.0 mi WNW 3.5 mph - N/A   Overcast
5:55 AM -4.0 °F -14.6 °F -9.4 °F 78% 30.39 in 10.0 mi WSW 4.6 mph - N/A   Overcast
6:35 AM -2.2 °F -14.2 °F -11.2 °F 66% 30.38 in 10.0 mi WNW 5.8 mph - N/A   Overcast
6:55 AM -2.2 °F -12.5 °F -11.2 °F 66% 30.39 in 10.0 mi West 4.6 mph - N/A   Overcast
7:15 AM -2.2 °F -14.2 °F -11.2 °F 66% 30.38 in 10.0 mi West 5.8 mph - N/A   Overcast
7:35 AM -2.2 °F -12.5 °F -9.4 °F 71% 30.38 in 10.0 mi West 4.6 mph - N/A   Overcast
7:55 AM -2.2 °F -10.4 °F -11.2 °F 66% 30.37 in 10.0 mi WSW 3.5 mph - N/A   Overcast
8:15 AM -2.2 °F -10.4 °F -11.2 °F 66% 30.37 in 10.0 mi West 3.5 mph - N/A   Overcast
8:35 AM -2.2 °F -10.4 °F -9.4 °F 71% 30.37 in 10.0 mi West 3.5 mph - N/A   Overcast
9:15 AM -2.2 °F -12.5 °F -11.2 °F 66% 30.37 in 10.0 mi WSW 4.6 mph - N/A   Mostly Cloudy
9:35 AM -2.2 °F -14.2 °F -9.4 °F 71% 30.38 in 10.0 mi West 5.8 mph - N/A   Mostly Cloudy
9:55 AM -0.4 °F -8.3 °F -9.4 °F 66% 30.36 in 10.0 mi West 3.5 mph - N/A   Partly Cloudy
10:15 AM -0.4 °F - -9.4 °F 66% 30.36 in 10.0 mi Calm Calm - N/A   Scattered Clouds
10:35 AM -0.4 °F - -9.4 °F 66% 30.36 in 10.0 mi Calm Calm - N/A   Mostly Cloudy
10:55 AM -0.4 °F -10.4 °F -9.4 °F 66% 30.36 in 10.0 mi WSW 4.6 mph - N/A   Overcast
11:15 AM 1.4 °F -6.2 °F -9.4 °F 61% 30.34 in 10.0 mi WSW 3.5 mph - N/A   Overcast
11:35 AM 1.4 °F -9.9 °F -9.4 °F 61% 30.33 in 10.0 mi WSW 5.8 mph - N/A   Overcast
11:55 AM 1.4 °F -11.3 °F -7.6 °F 66% 30.33 in 10.0 mi WSW 6.9 mph - N/A   Overcast
12:35 PM 1.4 °F - -9.4 °F 61% 30.31 in 10.0 mi Calm Calm - N/A   Overcast
12:55 PM 3.2 °F -4.2 °F -7.6 °F 61% 30.30 in 10.0 mi WSW 3.5 mph - N/A   Scattered Clouds
1:15 PM 3.2 °F - -7.6 °F 61% 30.30 in 10.0 mi Calm Calm - N/A   Clear
1:35 PM 3.2 °F - -7.6 °F 61% 30.29 in 10.0 mi Calm Calm - N/A   Clear
1:55 PM 3.2 °F -4.2 °F -5.8 °F 66% 30.29 in 10.0 mi SSW 3.5 mph - N/A   Clear
2:15 PM 3.2 °F - -7.6 °F 61% 30.28 in 10.0 mi Calm Calm - N/A   Clear
2:35 PM 5.0 °F - -5.8 °F 61% 30.28 in 10.0 mi Calm Calm - N/A   Scattered Clouds
2:55 PM 3.2 °F - -9.4 °F 56% 30.27 in 10.0 mi Calm Calm - N/A   Partly Cloudy
3:15 PM 3.2 °F - -5.8 °F 66% 30.27 in 10.0 mi Calm Calm - N/A   Partly Cloudy
3:35 PM 3.2 °F - -5.8 °F 66% 30.27 in 10.0 mi Calm Calm - N/A   Scattered Clouds
4:15 PM 6.8 °F - -2.2 °F 67% 30.26 in 10.0 mi Calm Calm - N/A   Overcast
4:35 PM 5.0 °F - -9.4 °F 52% 30.25 in 10.0 mi Calm Calm - N/A   Mostly Cloudy
5:15 PM 5.0 °F - -7.6 °F 56% 30.24 in 10.0 mi Calm Calm - N/A   Overcast
5:35 PM 6.8 °F -0.1 °F -2.2 °F 67% 30.23 in 10.0 mi SE 3.5 mph - N/A   Overcast
5:55 PM 6.8 °F -0.1 °F -4.0 °F 61% 30.23 in 10.0 mi ESE 3.5 mph - N/A   Overcast
6:15 PM 6.8 °F - -4.0 °F 61% 30.24 in 10.0 mi Calm Calm - N/A   Overcast
6:35 PM 6.8 °F - -4.0 °F 61% 30.24 in 8.0 mi Calm Calm - N/A   Overcast
6:55 PM 6.8 °F - -2.2 °F 67% 30.24 in 3.0 mi Calm Calm - N/A   Overcast
7:15 PM 6.8 °F -0.1 °F -2.2 °F 67% 30.23 in 2.5 mi ENE 3.5 mph - N/A   Overcast
7:35 PM 6.8 °F -2.0 °F -2.2 °F 67% 30.23 in 2.0 mi ESE 4.6 mph - N/A   Overcast
7:55 PM 5.0 °F -4.1 °F -0.4 °F 78% 30.22 in 1.8 mi ESE 4.6 mph - N/A   Overcast
8:15 PM 5.0 °F -4.1 °F -0.4 °F 78% 30.22 in 2.0 mi ESE 4.6 mph - N/A   Overcast
8:35 PM 5.0 °F - -0.4 °F 78% 30.23 in 3.0 mi Calm Calm - N/A   Overcast
8:55 PM 5.0 °F -4.1 °F -0.4 °F 78% 30.23 in 2.5 mi South 4.6 mph - N/A   Overcast
9:15 PM 5.0 °F -2.1 °F -0.4 °F 78% 30.22 in 1.8 mi South 3.5 mph - N/A   Overcast
9:35 PM 5.0 °F -2.1 °F -0.4 °F 78% 30.21 in 2.5 mi SE 3.5 mph - N/A   Overcast
9:55 PM 6.8 °F -0.1 °F 1.4 °F 79% 30.21 in 1.8 mi ESE 3.5 mph - N/A   Overcast
10:15 PM 6.8 °F -2.0 °F 1.4 °F 79% 30.19 in 1.2 mi ESE 4.6 mph - N/A   Overcast
10:35 PM 6.8 °F -0.1 °F 1.4 °F 79% 30.19 in 10.0 mi East 3.5 mph - N/A   Scattered Clouds
10:55 PM 6.8 °F - 1.4 °F 79% 30.19 in 10.0 mi Calm Calm - N/A   Mostly Cloudy
11:15 PM 6.8 °F - 1.4 °F 79% 30.19 in 10.0 mi Calm Calm - N/A   Overcast
11:35 PM 6.8 °F -0.1 °F 1.4 °F 79% 30.19 in 10.0 mi ENE 3.5 mph - N/A   Mostly Cloudy
11:55 PM 6.8 °F -0.1 °F 1.4 °F 79% 30.19 in 8.0 mi East 3.5 mph - N/A   Scattered Clouds